Regional Weather Roundup
Issued by NWS Binghamton, NY

Home | Current Version | Previous Version | Text Only | Print | Product List | Glossary On
Versions: 1 2 3 4 5 6 7 8 9 10 11 12 13 14 15 16 17 18 19 20 21 22 23 24 25 26 27 28 29 30 31 32 33 34 35 36 37 38 39 40 41 42 43 44 45 46 47 48 49 50
000
ASUS41 KBGM 280310
RWRBGM
RWRBGM
BINGHAMTON REGIONAL WEATHER ROUNDUP
NATIONAL WEATHER SERVICE BINGHAMTON NY
1000 PM EST THU NOV 27 2014

Note: "fair" indicates few or no clouds below 12,000 feet with no
significant weather and/or obstructions to visibility.

* = Station(s) that does not report precipitation, such as rain,
snow, etc, also no thunder or fog.

!NYZ009-015>018-022>025-036-037-044>046-055>057-062-280400
...CENTRAL NEW YORK...

CITY           SKY/WX    TMP DP  RH WIND       PRES   REMARKS
BINGHAMTON     CLOUDY    24  21  88 W3        30.01R
CORTLAND       CLOUDY    27  27 100 SW3       30.05S
DANSVILLE      FLURRIES  30  28  92 CALM      30.07S
ELMIRA         CLOUDY    28  24  85 CALM      30.06S
ITHACA         CLOUDY    27  24  88 CALM      30.05S
HAMILTON       CLOUDY    28  25  86 W3        30.02S
MONTICELLO     PTCLDY    23  21  93 W6        30.02S WCI  16
NORWICH        PTCLDY    21  21 100 CALM      30.04F
PENN YAN       MOCLDY    29  25  85 W3        30.06R
ROME           LGT SNOW  28  26  92 CALM      30.07R FOG
SIDNEY         CLEAR     23  23 100 CALM      30.04S
SYRACUSE       MOCLDY    27  24  89 W8        30.07R WCI  19
$$

!PAZ038>040-043-044-047-048-072-280400
...NORTHEAST PENNSYLVANIA...

CITY           SKY/WX    TMP DP  RH WIND       PRES   REMARKS
HAZLETON       PTCLDY    27  21  80 NW5       30.05S WCI  21
SCRANTON       MOCLDY    22  19  89 S9        30.06S WCI  12
TOWANDA*       CLOUDY    19  18  93 SW5       30.09S WCI  13
$$
&&
KEY
WCI = WIND CHILL INDEX
VSB = VISIBILITY
HX  = HEAT INDEX
$$


USA.gov is the U.S. government's official web portal to all federal, state and local government web resources and services.